Content
SEND FEEDBACK

Daily
Averages
Monthly
Summary
United States of America

BIG WATER, UTAH


Home > North America > United States > Utah
Elevation: 4166 feet     Latitude: 37 05N     Longitude: 111 40W

WEATHER
 
SELECT A DAY
Number of Records: 197,737;   Date Range: 1/1/95 - 11/19/14
 
SHARE

PRINT THIS DATA

[ ← Previous Day ]
WEATHER ALMANAC - SEPTEMBER 15, 2013
[ Next Day → ]
[ °C ]   °F
Weather ElementAverageHighLow
Temperature72.4 °F81 °F (1:53 pm)63 °F (4:53 am)
Dewpoint54.9 °F57.9 °F (7:53 am)48 °F (4:53 pm)
Humidity55.9 %78 % (4:53 am)32 % (4:53 pm)
Barometer29.87 in29.91 in (8:53 am)29.79 in (1:53 am)
Wind Speed2.2 mph6.9 mph (10:53 am)
Weather ElementAverage
Visibility10 mi
Wind DirectionENE (65.2 °)

Weather ElementTotal
Precipitation---
Cooling Degree Days7 (Base 65)
Growing Degree Days22 (Base 50)
Averaged from 23 records on September 15, 2013
WEATHER CONDITIONS BREAKOUT
WIND DIRECTION BREAKOUT
WEATHER BY HOUR - SEPTEMBER 15, 2013
[ °C ]   °F
Local TimeTemperatureDewpointHumidityBarometerVisibilityWind DirectionWind SpeedGust SpeedPrecipitationEventsConditions
1:53 AM66.0 °F55.9 °F70 %29.79 in10.0 miCalmClear
2:53 AM64.9 °F55.9 °F73 %29.80 in10.0 miCalmClear
3:53 AM64.0 °F55.9 °F75 %29.81 in10.0 miCalmClear
4:53 AM63.0 °F55.9 °F78 %29.84 in10.0 miCalmClear
5:53 AM63.0 °F55.9 °F78 %29.87 in10.0 miCalmClear
6:53 AM66.0 °F57.0 °F73 %29.88 in10.0 miCalmClear
7:53 AM69.1 °F57.9 °F68 %29.89 in10.0 miCalmClear
8:53 AM72.0 °F57.0 °F59 %29.91 in10.0 miNE (40°)4.6 mphPartly Cloudy
9:53 AM73.0 °F57.0 °F57 %29.91 in10.0 miVariable4.6 mphClear
10:53 AM75.0 °F57.0 °F53 %29.91 in10.0 miVariable6.9 mphClear
11:53 AM75.9 °F57.0 °F52 %29.91 in10.0 miNorth (350°)5.8 mphClear
12:53 PM79.0 °F55.9 °F45 %29.88 in10.0 miNNE (30°)6.9 mphClear
1:53 PM81.0 °F55.9 °F42 %29.85 in10.0 miNNE (20°)4.6 mphClear
2:53 PM81.0 °F55.0 °F41 %29.84 in10.0 miNW (320°)3.5 mphClear
3:53 PM81.0 °F52.0 °F36 %29.83 in10.0 miNNE (20°)4.6 mphClear
4:53 PM80.1 °F48.0 °F32 %29.85 in10.0 miNorth (360°)4.6 mphClear
5:53 PM79.0 °F50.0 °F36 %29.85 in10.0 miNorth (360°)4.6 mphClear
6:53 PM77.0 °F53.1 °F43 %29.85 in10.0 miCalmClear
7:53 PM73.0 °F54.0 °F51 %29.87 in10.0 miCalmClear
8:53 PM75.0 °F53.1 °F46 %29.87 in10.0 miCalmClear
9:53 PM70.0 °F54.0 °F57 %29.90 in10.0 miCalmClear
10:53 PM70.0 °F55.0 °F59 %29.90 in10.0 miCalmClear
11:53 PM68.0 °F54.0 °F61 %29.91 in10.0 miCalmClear
Hourly data recorded from KPGA, located miles away from Big Water, Utah







STORIES FROM OUR PARTNERS